Flag for U.S.A. Weather past 2 weeks in Corpus Christi, Texas, U.S.A.

Now
65 °F

Fog.


Feels Like: 65 °F
Forecast: 56 / 71 °F
Wind: 7 mph from Southwest

Location: Corpus Christi International Airport

Current Time: Mar 3, 2015 at 1:48:06 PM

Latest Report: Mar 3, 2015 at 12:51 PM


Visibility: 4 mi

Pressure: 29.94 "Hg

Humidity: 94%

Dew point: 63 °F

Location of Corpus ChristiLocation

Historic Weather in Corpus Christi — Graph

°F

Corpus Christi temperature yesterday

Maximum temperature yesterday: 54 °F (at 3:51 PM)
Minimum temperature yesterday: 47 °F (at 6:51 AM)
Average temperature yesterday: 51 °F

Past Weeks' High & Low Weather Summary

 TemperatureHumidityPressure
High79 °F (Feb 21, 1:51 PM)100% (Mar 1, 5:51 AM)30.41 "Hg (Mar 1, 5:51 AM)
Low32 °F (Feb 18, 6:51 AM)27% (Feb 18, 1:51 PM)29.81 "Hg (Feb 25, 4:51 PM)
Average53 °F80%30.13 "Hg
* Reported Feb 16 11:00 AM — Mar 3 11:51 AM, Corpus Christi, Weather by CustomWeather, © 2015

Note: Actual official high and low records may vary slightly from our data, if they occured in-between our weather recording intervals... More about our weather records

Advertising

Corpus Christi weather history for previous 24 hours

 ConditionsComfort  
Time TempWeatherWind HumidityBarometerVisibility
11:51 AM
Tue, Mar 3
63 °FDrizzle. Fog.8 mph93%29.98 "Hg3 mi
11:02 AM63 °FFog.9 mph93%30.00 "Hg2 mi
10:51 AM61 °FFog.3 mph93%29.99 "Hg0 mi
9:51 AM56 °FFog.No wind100%30.01 "Hg0 mi
8:51 AM55 °FDrizzle. Fog.6 mph100%30.01 "Hg0 mi
7:51 AM54 °FDrizzle. Fog.8 mph97%30.01 "Hg0 mi
6:51 AM54 °FFog.No wind100%30.00 "Hg0 mi
5:51 AM54 °FDrizzle. Fog.No wind100%30.00 "Hg1 mi
4:51 AM54 °FDrizzle. Fog.7 mph100%29.99 "Hg1 mi
3:51 AM54 °FDrizzle. Fog.6 mph97%30.00 "Hg1 mi
2:51 AM53 °FFog.7 mph100%30.03 "Hg0 mi
1:51 AM54 °FDrizzle. Fog.8 mph97%30.06 "Hg1 mi
12:51 AM53 °FDrizzle. Fog.7 mph96%30.09 "Hg1 mi
11:51 PM
Mon, Mar 2
53 °FFog.6 mph96%30.12 "Hg0 mi
10:51 PM53 °FDrizzle. Fog.5 mph96%30.14 "Hg0 mi
9:51 PM53 °FFog.5 mph96%30.14 "Hg0 mi
8:51 PM54 °FDrizzle. Fog.5 mph97%30.14 "Hg1 mi
7:51 PM54 °FDrizzle. Fog.5 mph97%30.14 "Hg1 mi
6:51 PM54 °FDrizzle. Fog.7 mph93%30.14 "Hg1 mi
5:51 PM54 °FDrizzle. Fog.6 mph93%30.14 "Hg1 mi
4:51 PM54 °FDrizzle. Fog.8 mph93%30.14 "Hg1 mi
3:51 PM54 °FDrizzle. Fog.8 mph93%30.16 "Hg1 mi
2:51 PM53 °FFog.8 mph93%30.18 "Hg1 mi
1:51 PM52 °FFog.9 mph97%30.21 "Hg1 mi
Weather by CustomWeather, © 2015

See weather overviewHow to use our weather pages